THOR ABLESTAR DEB, 467

Orbit data source: Space-Track

THOR ABLESTAR DEB, 467 is space debris in LEO originally from a launch on Thu, 29 Jun 1961 UTC launched from the Air Force Eastern Test Range (AFETR). Debris objects in space refer to the collection of defunct objects orbiting the Earth. Examples of debris include non-operational satellites, rocket bodies, and fragments generated from explosions, collisions, or faulty payload assembly.

Loading next visibility...
Identifier
467, 1961-015FD
Orbit
LEO
Country
Flag of USUS
Related business
Manufacturer
Unknown
Mission
Spacecraft
Bus & Motor
Unknown
Mass
Unknown
Launch date (UTC)
1961-06-29 (65 years ago)
Launch vehicle
Unknown
Launch site
Air Force Eastern Test Range (AFETR)
Object type
Payload
Rocket body
Debris
Shape & HBR
Unknown shape, 0.1 m
Radar Cross Section
Small (<0.1 m²)

Expand to show TLE details & history
Last TLE update: 19 hours ago

TLE from 19 hours ago
0 THOR ABLESTAR DEB
1 00467U 61015FD  26120.38397837  .00000956  00000-0  11830-2 0  9994
2 00467  66.5564 199.4292 0245224 347.3097  12.1858 13.57330823274451
Epoch: 2026-04-30T09:12Z
TLE epoch observation values (Epoch: 2026-04-30T09:12:55.731Z)
Latitude
0.00004°
Longitude
-157.13436°
Altitude
869.681 km
Speed
7.506 km/s
True Right ascension
13h 17m 43s
True Declination
0° 00' 00"
Sunlit
Object was in full shadow at epoch
Visualization orbit readout
Latitude
Unknown
Longitude
Unknown
Altitude
Unknown
Speed
Unknown
Apparent Right ascension
Unknown
Apparent Declination
Unknown
Sunlit
N/A
Visualization observer readout
Local Sidereal Time
11:34:39
Azimuth
Unknown
Elevation
Unknown
Doppler factor
Unknown
Orbital elements
Apogee altitude
1,225.859 km
Perigee altitude
861.849 km
Semi-major axis
7,421.991 km
Eccentricity
0.02452
Inclination
66.5564°
RAAN
199.4292°
Arg. of periapsis
347.3097°
True anomaly
12.79724°
Mean anomaly
12.1858°
Eccentric anomaly
12.48966°
Mean motion
3.3944 °/min
Orbital period
106.06 mins
BSTAR
0.001183
Loading maneuver chart data...
Computing Atmospheric mass density...

Documentation

Showing up to 5 results
|